[[{"header":{"parameterUnit":"m.s-1","parameterCategory":1,"la1":30.2991,"la2":30.254,"lo1":-89.0895,"lo2":-89.0444,"dy":0.0017,"dx":0.0017,"nx":28,"ny":28,"refTime":"2025-08-30T09:00:00:Z","depth":0,"parameterNumber":2,"parameterNumberName":"U-component_of_WINDS"},"data":[0,0,0,0,0,0,0,0,0,0,0,0,0,0,0,0,0,0,0,0,0,0,0,0,0,0,0,0,0,0,0,0,0,0,0,0,0,0,0,0,0,0,0,0,0,0,0,0,0,0,0,0,0,0,0,0,0,0,-5.0134,-5.0136,0,-5.0285,-5.0287,-5.0288,-5.0241,-5.0238,-5.0234,-5.0231,-5.0379,-5.0385,-5.0392,0,0,0,0,0,0,0,0,0,0,0,0,0,-4.9797,-4.9804,-5.0134,-5.0136,-5.0138,-5.0285,-5.0287,-5.0289,-5.0241,-5.0238,-5.0234,-5.023,-5.0376,-5.0384,-5.0393,0,0,0,0,0,0,0,0,0,0,0,0,0,-4.9945,-4.9806,-5.0134,-5.0132,-5.0133,-5.0284,-5.0287,-5.0289,-5.0242,-5.0237,-5.0233,-5.0228,-5.0374,-5.0384,-5.0394,-5.0553,0,0,-5.0425,-5.043,0,0,0,0,0,0,0,0,-4.9937,-4.9957,-5.013,-5.0132,-5.0134,-5.0239,-5.0222,-5.0378,-5.0243,-5.0201,-5.0231,-5.0226,-5.0336,-5.0349,-5.0387,-5.056,-5.0567,-5.0426,-5.0433,-5.0437,-5.044,0,0,0,0,0,0,0,-4.9927,-4.9951,-5.0193,-5.0133,-5.0135,-5.0121,-5.0137,-5.0251,-5.0293,-5.0204,-5.0201,-5.022,-5.0336,-5.0378,-5.039,-5.0569,-5.0426,-5.0435,-5.0442,-5.0446,-5.0878,-5.0883,0,0,0,0,0,0,-4.9916,-4.9942,-5.0189,-5.0198,-5.0022,-5.0131,-5.0149,-5.021,-5.0292,-5.03,-5.0224,-5.0217,-5.0362,-5.0378,-5.0395,-5.0586,-5.0437,-5.0447,-5.0453,-5.0873,-5.0879,-5.0885,0,0,0,0,0,0,-4.9909,-4.9939,-5.0183,-5.007,-5.01,-5.0142,-5.0212,-5.0216,-5.0258,-5.0307,-5.0313,-5.0259,-5.0359,-5.0381,-5.0515,-5.059,-5.0451,-5.0461,-5.0867,-5.0875,-5.0882,-5.0969,0,0,0,0,0,0,-4.99,-4.9936,-4.9999,-5.0072,-5.0106,-5.0302,-5.0216,-5.0222,-5.0277,-5.0269,-5.0342,-5.0349,-5.0357,-5.0499,-5.0525,-5.0602,-5.0469,-5.086,-5.087,-5.088,-5.096,-5.0979,-5.0996,0,0,0,0,0,-4.9888,-5.0016,-5.0003,-5.0033,-5.0186,-5.0306,-5.0326,-5.0334,-5.0283,-5.0345,-5.0376,-5.0347,-5.0579,-5.0514,-5.0542,-5.0623,-5.0855,-5.0867,-5.0879,-5.0952,-5.0975,-5.0995,0,0,0,0,0,0,-4.9949,-5.0026,-5.0011,-5.0168,-5.0231,-5.0298,-5.0376,-5.0359,-5.0437,-5.0426,-5.0432,-5.0448,-5.0585,-5.0618,-5.0544,-5.0781,-5.0709,-5.0727,-5.0754,-5.0777,-5.0795,-5.0783,-5.0477,0,0,0,0,0,-4.9981,-5.0075,-5.0136,-5.0268,-5.0301,-5.0334,-5.0386,-5.0388,-5.0453,-5.0479,-5.052,-5.0582,-5.0668,-5.0725,-5.0808,-5.0965,-5.0978,-5.1035,-5.1053,-5.1067,-5.1082,-5.1165,-5.119,-5.0924,-5.0924,-5.0924,0,0,-5.0047,-5.0101,-5.016,-5.0282,-5.0331,-5.0426,-5.0356,-5.046,-5.0529,-5.0493,-5.0622,-5.0655,-5.0724,-5.087,-5.0936,-5.0901,-5.1159,-5.1083,-5.1094,-5.1101,-5.118,-5.1205,-5.1228,-5.0932,-5.0931,-5.0929,0,0,-5.0216,-5.0268,-5.0383,-5.0434,-5.0511,-5.0532,-5.0559,-5.063,-5.065,-5.0781,-5.0756,-5.0837,-5.0987,-5.1037,-5.1082,-5.1271,-5.1245,-5.1297,-5.139,-5.1472,-5.1493,-5.1511,-5.1576,-5.16,-5.1312,-5.1313,-5.1313,0,-5.0288,-5.0432,-5.0443,-5.0549,-5.0602,-5.0578,-5.0692,-5.0741,-5.0839,-5.0875,-5.0836,-5.1023,-5.1068,-5.1224,-5.1271,-5.1309,-5.1338,-5.1288,-5.149,-5.1508,-5.1526,-5.1587,-5.1612,-5.1318,-5.1318,-5.1317,-5.1317,0,-5.0516,-5.0616,-5.0699,-5.0797,-5.086,-5.097,-5.0995,-5.1057,-5.1054,-5.1078,-5.121,-5.1263,-5.1356,-5.1393,-5.139,-5.1549,-5.1525,-5.1488,-5.1415,-5.1556,-5.1614,-5.1638,-5.1326,-5.1324,-5.1323,-5.1321,0,0,-5.0725,-5.0829,-5.0859,-5.0903,-5.0986,-5.1062,-5.117,-5.1263,-5.1315,-5.1384,-5.1473,-5.1601,-5.1567,-5.1618,-5.162,-5.1692,-5.1835,-5.1646,-5.1647,-5.1677,-5.2011,-5.2036,-5.2064,-5.1821,-5.1825,-5.1829,-5.2004,0,-5.0898,-5.1091,-5.1104,-5.1276,-5.1367,-5.1346,-5.1439,-5.1499,-5.1525,-5.1604,-5.1632,-5.1721,-5.1672,-5.1702,-5.1773,-5.1803,-5.1902,-5.1791,-5.1899,-5.1903,-5.188,-5.2094,-5.2121,-5.2284,-5.2027,-5.2031,-5.2034,0,-5.1126,-5.1205,-5.1387,-5.1457,-5.1495,-5.158,-5.1665,-5.1743,-5.1809,-5.1823,-5.1881,-5.1873,-5.1981,-5.1907,-5.2054,-5.1978,-5.2023,-5.2045,-5.2051,-5.2059,-5.1975,-5.2105,-5.2337,-5.236,-5.207,-5.2067,-5.2065,0,-5.1257,-5.1408,-5.1536,-5.1575,-5.166,-5.172,-5.1757,-5.182,-5.1875,-5.1949,-5.1984,-5.2069,-5.2115,-5.218,-5.2195,-5.214,-5.2341,-5.2268,-5.2352,-5.2352,-5.2392,-5.2389,-5.2632,-5.2428,-5.2427,-5.2427,-5.2426,0,-5.1448,-5.1559,-5.1596,-5.1675,-5.1798,-5.1812,-5.1933,-5.1967,-5.2023,-5.2105,-5.2092,-5.2169,-5.2185,-5.2265,-5.2277,-5.2395,-5.2417,-5.2428,-5.243,-5.2428,-5.2426,-5.2455,-5.2443,-5.2433,-5.2432,-5.243,-5.2429,0,-5.1613,-5.1643,-5.1781,-5.1852,-5.1872,-5.1959,-5.2018,-5.2092,-5.2118,-5.2222,-5.2247,-5.2286,-5.2379,-5.2402,-5.2512,-5.252,-5.2659,-5.2651,-5.2637,-5.2635,-5.2717,-5.2708,-5.2984,-5.3019,-5.2795,-5.2797,-5.2799,0,-5.1731,-5.1816,-5.1897,-5.1953,-5.1994,-5.2084,-5.214,-5.2157,-5.2216,-5.2299,-5.2362,-5.2455,-5.2529,-5.2679,-5.2715,-5.2799,-5.279,-5.2882,-5.2803,-5.2798,-5.2788,-5.2781,-5.2788,-5.2895,-5.2898,-5.29,-5.2901,0,-5.1936,-5.1947,-5.203,-5.2119,-5.2188,-5.2258,-5.2324,-5.237,-5.2396,-5.2462,-5.2559,-5.2617,-5.2731,-5.2822,-5.2907,-5.2943,-5.2925,-5.2927,-5.295,-5.2947,-5.2934,-5.2939,-5.2675,-5.2919,-5.2917,-5.2916,-5.2915,-5.2914,-5.2079,-5.2153,-5.2222,-5.2315,-5.2368,-5.2431,-5.2503,-5.2539,-5.2621,-5.2716,-5.2721,-5.2826,-5.2889,-5.3002,-5.3043,-5.3123,-5.3094,-5.3129,-5.3137,-5.3144,-5.315,-5.2925,-5.3139,-5.3138,-5.3138,-5.3137,-5.3137,0,-5.228,-5.2324,-5.241,-5.2505,-5.2578,-5.256,-5.2633,-5.2693,-5.2786,-5.2849,-5.2923,-5.3033,-5.3121,-5.3166,-5.3253,-5.3308,-5.3302,-5.333,-5.3324,-5.3332,-5.3172,-5.3142,-5.3333,-5.3333,-5.3333,-5.3333,-5.3333,-5.3333,-5.2393,-5.2518,-5.2537,-5.2687,-5.2729,-5.2833,-5.2876,-5.2933,-5.2983,-5.3108,-5.3182,-5.3211,-5.3266,-5.3356,-5.3436,-5.3446,-5.3477,-5.3508,-5.3514,-5.3363,-5.3343,-5.3324,-5.3295,-5.3516,-5.3516,-5.3667,-5.3668,-5.3669]},{"header":{"parameterUnit":"m.s-1","parameterCategory":1,"la1":30.2991,"la2":30.254,"lo1":-89.0895,"lo2":-89.0444,"dy":0.0017,"dx":0.0017,"nx":28,"ny":28,"refTime":"2025-08-30T09:00:00:Z","depth":0,"parameterNumber":3,"parameterNumberName":"V-component_of_WINDS"},"data":[0,0,0,0,0,0,0,0,0,0,0,0,0,0,0,0,0,0,0,0,0,0,0,0,0,0,0,0,0,0,0,0,0,0,0,0,0,0,0,0,0,0,0,0,0,0,0,0,0,0,0,0,0,0,0,0,0,0,-3.1599,-3.1599,0,-3.1671,-3.1672,-3.1673,-3.1642,-3.164,-3.1638,-3.1637,-3.1706,-3.1709,-3.1713,0,0,0,0,0,0,0,0,0,0,0,0,0,-3.1427,-3.143,-3.1598,-3.1599,-3.16,-3.1671,-3.1672,-3.1673,-3.1642,-3.164,-3.1638,-3.1636,-3.1705,-3.1709,-3.1713,0,0,0,0,0,0,0,0,0,0,0,0,0,-3.1501,-3.1431,-3.1598,-3.1594,-3.1594,-3.1671,-3.1672,-3.1673,-3.1643,-3.164,-3.1637,-3.1635,-3.1703,-3.1708,-3.1714,-3.1798,0,0,-3.1729,-3.1732,0,0,0,0,0,0,0,0,-3.1496,-3.1507,-3.1593,-3.1594,-3.1595,-3.1645,-3.1637,-3.1715,-3.1643,-3.1624,-3.1637,-3.1634,-3.1687,-3.1694,-3.1713,-3.1801,-3.1804,-3.173,-3.1733,-3.1735,-3.1737,0,0,0,0,0,0,0,-3.1491,-3.1504,-3.1627,-3.1595,-3.1595,-3.1586,-3.1593,-3.1652,-3.1669,-3.1625,-3.1623,-3.1633,-3.1687,-3.1708,-3.1714,-3.1805,-3.173,-3.1734,-3.1738,-3.174,-3.1964,-3.1967,0,0,0,0,0,0,-3.1487,-3.15,-3.1625,-3.1629,-3.1538,-3.1591,-3.16,-3.1631,-3.1669,-3.1672,-3.1635,-3.1631,-3.17,-3.1708,-3.1717,-3.1817,-3.1735,-3.174,-3.1743,-3.1961,-3.1965,-3.1968,0,0,0,0,0,0,-3.1483,-3.1499,-3.1622,-3.1564,-3.1579,-3.1597,-3.1633,-3.1634,-3.1655,-3.1676,-3.1678,-3.1653,-3.1699,-3.1709,-3.1778,-3.1819,-3.1742,-3.1747,-3.1958,-3.1963,-3.1966,-3.2019,0,0,0,0,0,0,-3.1479,-3.1497,-3.1531,-3.1565,-3.1582,-3.1684,-3.1635,-3.1637,-3.1665,-3.166,-3.1694,-3.1697,-3.1697,-3.177,-3.1783,-3.1825,-3.1751,-3.1954,-3.196,-3.1965,-3.2013,-3.2024,-3.2033,0,0,0,0,0,-3.1473,-3.1542,-3.1533,-3.1548,-3.1625,-3.1686,-3.1696,-3.1697,-3.1668,-3.1701,-3.1714,-3.1696,-3.1813,-3.1778,-3.1792,-3.1835,-3.1952,-3.1958,-3.1965,-3.2009,-3.2022,-3.2033,0,0,0,0,0,0,-3.151,-3.1546,-3.1537,-3.1619,-3.165,-3.1681,-3.1723,-3.1711,-3.1749,-3.1743,-3.1741,-3.1749,-3.182,-3.1834,-3.1795,-3.1918,-3.1877,-3.1887,-3.1906,-3.1919,-3.1929,-3.1923,-3.1755,0,0,0,0,0,-3.1529,-3.1577,-3.1605,-3.1675,-3.1692,-3.1705,-3.1731,-3.173,-3.1761,-3.1773,-3.1791,-3.1821,-3.1864,-3.1892,-3.1933,-3.2015,-3.2021,-3.2052,-3.2062,-3.207,-3.2078,-3.2122,-3.2135,-3.1989,-3.1989,-3.1989,0,0,-3.1566,-3.1592,-3.1622,-3.1684,-3.1707,-3.1756,-3.1716,-3.1769,-3.1805,-3.178,-3.1847,-3.1861,-3.1894,-3.1969,-3.2003,-3.1983,-3.212,-3.2079,-3.2085,-3.2089,-3.213,-3.2143,-3.2156,-3.1993,-3.1993,-3.1992,0,0,-3.1659,-3.1684,-3.1745,-3.177,-3.1807,-3.1815,-3.183,-3.1863,-3.1872,-3.1939,-3.1922,-3.1963,-3.2038,-3.2061,-3.2083,-3.2185,-3.2169,-3.2198,-3.225,-3.2293,-3.2304,-3.2314,-3.235,-3.2362,-3.2206,-3.2206,-3.2206,0,-3.17,-3.1775,-3.1777,-3.1833,-3.1859,-3.1842,-3.1902,-3.1925,-3.1973,-3.1991,-3.1969,-3.2062,-3.2082,-3.2163,-3.2188,-3.2206,-3.2221,-3.2194,-3.2303,-3.2313,-3.2322,-3.2356,-3.2369,-3.221,-3.2209,-3.2209,-3.2209,0,-3.1824,-3.1876,-3.192,-3.1969,-3.2,-3.2058,-3.2066,-3.2098,-3.2093,-3.2103,-3.2171,-3.2195,-3.224,-3.2259,-3.2254,-3.2339,-3.2325,-3.2303,-3.2262,-3.234,-3.2371,-3.2384,-3.2214,-3.2213,-3.2212,-3.2211,0,0,-3.1942,-3.1992,-3.2008,-3.2029,-3.2069,-3.2108,-3.2164,-3.221,-3.2236,-3.227,-3.2315,-3.2379,-3.2359,-3.2383,-3.2381,-3.2418,-3.2496,-3.2391,-3.2392,-3.2409,-3.2589,-3.2605,-3.262,-3.2486,-3.2488,-3.249,-3.2586,0,-3.2037,-3.2138,-3.2141,-3.2232,-3.2279,-3.2263,-3.2311,-3.2339,-3.235,-3.239,-3.24,-3.2446,-3.2416,-3.2431,-3.2467,-3.2479,-3.2532,-3.2472,-3.2526,-3.2528,-3.2518,-3.2636,-3.2654,-3.2742,-3.2598,-3.26,-3.2602,0,-3.2162,-3.2202,-3.2297,-3.233,-3.235,-3.2394,-3.2436,-3.2475,-3.2506,-3.2511,-3.2539,-3.2531,-3.2586,-3.2544,-3.2618,-3.2577,-3.26,-3.2609,-3.2612,-3.2616,-3.2569,-3.2643,-3.2771,-3.2784,-3.2621,-3.262,-3.2618,0,-3.2238,-3.2314,-3.2382,-3.2401,-3.244,-3.2471,-3.2489,-3.2518,-3.2545,-3.2581,-3.2598,-3.264,-3.2662,-3.2693,-3.2696,-3.2666,-3.2771,-3.2729,-3.2775,-3.2775,-3.2797,-3.2795,-3.2929,-3.2813,-3.2813,-3.2813,-3.2812,0,-3.2343,-3.2402,-3.2416,-3.2457,-3.2522,-3.2525,-3.2588,-3.2603,-3.2629,-3.2671,-3.2659,-3.2698,-3.27,-3.274,-3.2742,-3.2803,-3.2813,-3.2817,-3.2817,-3.2818,-3.2818,-3.2832,-3.2825,-3.2816,-3.2815,-3.2815,-3.2814,0,-3.2438,-3.245,-3.2522,-3.2555,-3.2564,-3.261,-3.2637,-3.2675,-3.2685,-3.2738,-3.2751,-3.2766,-3.2812,-3.2818,-3.2872,-3.2873,-3.2946,-3.2939,-3.2936,-3.2934,-3.2979,-3.2975,-3.3127,-3.3146,-3.3018,-3.3019,-3.302,0,-3.2504,-3.255,-3.2587,-3.2616,-3.2636,-3.2682,-3.271,-3.2713,-3.2743,-3.2782,-3.2815,-3.2861,-3.2897,-3.2971,-3.2985,-3.3026,-3.302,-3.307,-3.3026,-3.3025,-3.3019,-3.3016,-3.302,-3.3078,-3.308,-3.3081,-3.3082,0,-3.262,-3.2624,-3.2666,-3.2711,-3.2745,-3.278,-3.2812,-3.2836,-3.2843,-3.2877,-3.2925,-3.2953,-3.3009,-3.3053,-3.3094,-3.3109,-3.3096,-3.3096,-3.3108,-3.3109,-3.3105,-3.3107,-3.2958,-3.3092,-3.3091,-3.309,-3.309,-3.3089,-3.2702,-3.2741,-3.2774,-3.2821,-3.2847,-3.2877,-3.2915,-3.293,-3.2971,-3.3018,-3.3017,-3.307,-3.3098,-3.3151,-3.317,-3.321,-3.3193,-3.3211,-3.3216,-3.322,-3.3224,-3.31,-3.3217,-3.3217,-3.3217,-3.3216,-3.3216,0,-3.2816,-3.2837,-3.288,-3.2927,-3.2964,-3.2951,-3.2986,-3.3017,-3.3064,-3.3094,-3.313,-3.3185,-3.3228,-3.3246,-3.3288,-3.3316,-3.3311,-3.3327,-3.3324,-3.3328,-3.3237,-3.3222,-3.333,-3.333,-3.333,-3.333,-3.333,-3.333,-3.288,-3.2945,-3.2953,-3.303,-3.305,-3.3103,-3.3124,-3.3152,-3.3175,-3.3238,-3.3274,-3.3286,-3.331,-3.3354,-3.3392,-3.3396,-3.3412,-3.343,-3.3431,-3.3346,-3.3334,-3.3323,-3.3309,-3.3434,-3.3434,-3.3518,-3.3519,-3.3519]}]]